• En España
  • Lista de países
  • Para 7 días
  • Temperatura del agua
  • Mapa Satelital
  • El tiempo en el mapa
  • Informadores
  • user-avatar
    Iniciar sesión

    Tiempo cada hora Perth

    Hoy, 15 Diciembre, Viernes

    Tiempo Temperatura Precipitaciones Viento Presión Humedad
    00:00 +20°C° 0 mm 5 mps 758 mmHg 67%
    01:00 +20°C° 0 mm 5 mps 758 mmHg 66%
    02:00 +19°C° 0 mm 4 mps 758 mmHg 66%
    03:00 +19°C° 0 mm 4 mps 758 mmHg 67%
    04:00 +19°C° 0 mm 4 mps 758 mmHg 68%
    05:00 +19°C° 0 mm 4 mps 758 mmHg 68%
    06:00 +21°C° 0 mm 4 mps 758 mmHg 62%
    07:00 +22°C° 0 mm 4 mps 758 mmHg 56%
    08:00 +25°C° 0 mm 4 mps 758 mmHg 51%
    09:00 +28°C° 0 mm 4 mps 757 mmHg 43%
    10:00 +30°C° 0 mm 3 mps 757 mmHg 35%
    11:00 +34°C° 0 mm 3 mps 757 mmHg 28%
    12:00 +34°C° 0 mm 4 mps 756 mmHg 27%
    13:00 +35°C° 0 mm 5 mps 755 mmHg 27%
    14:00 +34°C° 0 mm 6 mps 755 mmHg 30%
    15:00 +34°C° 0 mm 6 mps 755 mmHg 32%
    16:00 +33°C° 0 mm 6 mps 754 mmHg 34%
    17:00 +32°C° 0 mm 6 mps 754 mmHg 35%
    18:00 +29°C° 0 mm 6 mps 754 mmHg 41%
    19:00 +27°C° 0 mm 6 mps 754 mmHg 47%
    20:00 +24°C° 0 mm 6 mps 754 mmHg 53%
    21:00 +24°C° 0 mm 6 mps 754 mmHg 54%
    22:00 +23°C° 0 mm 5 mps 755 mmHg 55%
    23:00 +23°C° 0 mm 5 mps 755 mmHg 55%

    Mañana, 16 Diciembre, Sábado

    Tiempo Temperatura Precipitaciones Viento Presión Humedad
    00:00 +22°C° 0 mm 5 mps 754 mmHg 56%
    01:00 +22°C° 0 mm 5 mps 754 mmHg 56%
    02:00 +22°C° 0 mm 4 mps 754 mmHg 56%
    03:00 +21°C° 0 mm 4 mps 754 mmHg 60%
    04:00 +21°C° 0 mm 4 mps 754 mmHg 64%
    05:00 +20°C° 0 mm 3 mps 754 mmHg 68%
    06:00 +22°C° 0 mm 3 mps 754 mmHg 62%
    07:00 +25°C° 0 mm 3 mps 754 mmHg 56%
    08:00 +26°C° 0 mm 2 mps 754 mmHg 50%
    09:00 +28°C° 0 mm 3 mps 754 mmHg 45%
    10:00 +30°C° 0 mm 4 mps 753 mmHg 40%
    11:00 +33°C° 0 mm 4 mps 753 mmHg 35%
    12:00 +32°C° 0 mm 5 mps 753 mmHg 36%
    13:00 +32°C° 0 mm 6 mps 752 mmHg 38%
    14:00 +30°C° 0 mm 7 mps 752 mmHg 39%
    15:00 +29°C° 0 mm 7 mps 752 mmHg 44%
    16:00 +27°C° 0 mm 7 mps 752 mmHg 49%
    17:00 +26°C° 0 mm 7 mps 752 mmHg 54%
    18:00 +23°C° 0 mm 6 mps 752 mmHg 61%
    19:00 +21°C° 0 mm 6 mps 753 mmHg 69%
    20:00 +20°C° 0 mm 5 mps 753 mmHg 76%
    21:00 +19°C° 0 mm 6 mps 753 mmHg 76%
    22:00 +19°C° 0 mm 6 mps 753 mmHg 77%
    23:00 +19°C° 0 mm 6 mps 753 mmHg 77%

    Pasado mañana, 17 Diciembre, Domingo

    Tiempo Temperatura Precipitaciones Viento Presión Humedad
    00:00 +19°C° 0,2 mm 6 mps 752 mmHg 77%
    01:00 +20°C° 0,2 mm 7 mps 752 mmHg 76%
    02:00 +20°C° 0,2 mm 8 mps 751 mmHg 75%
    03:00 +18°C° 0,2 mm 7 mps 751 mmHg 74%
    04:00 +18°C° 0,2 mm 7 mps 751 mmHg 73%
    05:00 +17°C° 0,2 mm 7 mps 751 mmHg 72%
    06:00 +17°C° 0,1 mm 7 mps 751 mmHg 68%
    07:00 +17°C° 0,1 mm 8 mps 751 mmHg 63%
    08:00 +17°C° 0,1 mm 8 mps 752 mmHg 59%
    09:00 +18°C° 0,2 mm 8 mps 752 mmHg 55%
    10:00 +19°C° 0,2 mm 9 mps 752 mmHg 50%
    11:00 +21°C° 0,2 mm 9 mps 752 mmHg 46%
    12:00 +21°C° 0,3 mm 9 mps 751 mmHg 47%
    13:00 +19°C° 0,3 mm 9 mps 751 mmHg 47%
    14:00 +19°C° 0,3 mm 10 mps 751 mmHg 47%
    15:00 +19°C° 0,4 mm 10 mps 750 mmHg 49%
    16:00 +19°C° 0,4 mm 10 mps 750 mmHg 51%
    17:00 +18°C° 0,4 mm 10 mps 750 mmHg 53%
    18:00 +18°C° 0,8 mm 10 mps 750 mmHg 58%
    19:00 +17°C° 0,8 mm 10 mps 750 mmHg 63%
    20:00 +16°C° 0,8 mm 10 mps 749 mmHg 68%
    21:00 +16°C° 1,4 mm 9 mps 750 mmHg 69%
    22:00 +16°C° 1,4 mm 8 mps 750 mmHg 70%
    23:00 +16°C° 1,4 mm 8 mps 750 mmHg 70%

    18 Diciembre, Lunes

    Tiempo Temperatura Precipitaciones Viento Presión Humedad
    00:00 +15°C° 1,6 mm 8 mps 749 mmHg 74%
    01:00 +15°C° 1,6 mm 8 mps 749 mmHg 77%
    02:00 +15°C° 1,6 mm 8 mps 748 mmHg 80%
    03:00 +15°C° 1,1 mm 9 mps 748 mmHg 78%
    04:00 +16°C° 1,1 mm 9 mps 749 mmHg 75%
    05:00 +16°C° 1,1 mm 9 mps 749 mmHg 73%
    06:00 +17°C° 0,3 mm 9 mps 749 mmHg 70%
    07:00 +17°C° 0,3 mm 9 mps 750 mmHg 68%
    08:00 +18°C° 0,3 mm 9 mps 751 mmHg 66%
    09:00 +19°C° 0,3 mm 9 mps 751 mmHg 62%
    10:00 +21°C° 0,3 mm 9 mps 752 mmHg 57%
    11:00 +23°C° 0,3 mm 10 mps 752 mmHg 53%
    12:00 +23°C° 0 mm 9 mps 752 mmHg 50%
    13:00 +24°C° 0 mm 9 mps 753 mmHg 47%
    14:00 +26°C° 0 mm 9 mps 753 mmHg 45%
    15:00 +24°C° 0 mm 8 mps 753 mmHg 48%
    16:00 +23°C° 0 mm 8 mps 753 mmHg 50%
    17:00 +23°C° 0 mm 8 mps 754 mmHg 53%
    18:00 +22°C° 0 mm 7 mps 755 mmHg 58%
    19:00 +21°C° 0 mm 6 mps 755 mmHg 62%
    20:00 +19°C° 0 mm 6 mps 756 mmHg 67%
    21:00 +19°C° 0 mm 5 mps 757 mmHg 67%
    22:00 +19°C° 0 mm 5 mps 757 mmHg 67%
    23:00 +18°C° 0 mm 4 mps 758 mmHg 67%

    19 Diciembre, Martes

    Tiempo Temperatura Precipitaciones Viento Presión Humedad
    00:00 +18°C° 0 mm 4 mps 758 mmHg 71%
    01:00 +18°C° 0 mm 4 mps 758 mmHg 74%
    02:00 +17°C° 0 mm 4 mps 758 mmHg 77%
    03:00 +17°C° 0 mm 4 mps 758 mmHg 80%
    04:00 +17°C° 0 mm 4 mps 758 mmHg 83%
    05:00 +15°C° 0 mm 4 mps 759 mmHg 86%
    06:00 +18°C° 0 mm 4 mps 759 mmHg 78%
    07:00 +19°C° 0 mm 4 mps 760 mmHg 71%
    08:00 +20°C° 0 mm 4 mps 760 mmHg 64%
    09:00 +22°C° 0 mm 4 mps 760 mmHg 54%
    10:00 +25°C° 0 mm 4 mps 760 mmHg 44%
    11:00 +27°C° 0 mm 3 mps 760 mmHg 34%
    12:00 +28°C° 0 mm 4 mps 760 mmHg 32%
    13:00 +29°C° 0 mm 4 mps 760 mmHg 30%
    14:00 +30°C° 0 mm 5 mps 759 mmHg 28%
    15:00 +29°C° 0 mm 5 mps 759 mmHg 31%
    16:00 +29°C° 0 mm 6 mps 759 mmHg 33%
    17:00 +28°C° 0 mm 6 mps 759 mmHg 36%
    18:00 +27°C° 0 mm 6 mps 760 mmHg 43%
    19:00 +25°C° 0 mm 5 mps 760 mmHg 49%
    20:00 +22°C° 0 mm 5 mps 761 mmHg 56%
    21:00 +22°C° 0 mm 5 mps 761 mmHg 55%
    22:00 +22°C° 0 mm 5 mps 761 mmHg 54%
    23:00 +21°C° 0 mm 4 mps 762 mmHg 53%

    20 Diciembre, Miércoles

    Tiempo Temperatura Precipitaciones Viento Presión Humedad
    00:00 +21°C° 0 mm 5 mps 762 mmHg 52%
    01:00 +21°C° 0 mm 5 mps 761 mmHg 51%
    02:00 +21°C° 0 mm 5 mps 761 mmHg 51%
    03:00 +20°C° 0 mm 5 mps 761 mmHg 53%
    04:00 +20°C° 0 mm 5 mps 761 mmHg 56%
    05:00 +19°C° 0 mm 5 mps 761 mmHg 58%
    06:00 +21°C° 0 mm 5 mps 762 mmHg 55%
    07:00 +22°C° 0 mm 5 mps 762 mmHg 51%
    08:00 +23°C° 0 mm 5 mps 762 mmHg 47%
    09:00 +27°C° 0 mm 4 mps 762 mmHg 40%
    10:00 +29°C° 0 mm 3 mps 761 mmHg 33%
    11:00 +31°C° 0 mm 3 mps 761 mmHg 26%
    12:00 +34°C° 0 mm 3 mps 760 mmHg 24%
    13:00 +35°C° 0 mm 3 mps 760 mmHg 22%
    14:00 +36°C° 0 mm 3 mps 759 mmHg 19%
    15:00 +36°C° 0 mm 3 mps 759 mmHg 20%
    16:00 +35°C° 0 mm 4 mps 759 mmHg 22%
    17:00 +34°C° 0 mm 5 mps 758 mmHg 23%
    18:00 +32°C° 0 mm 4 mps 759 mmHg 27%
    19:00 +29°C° 0 mm 4 mps 759 mmHg 31%
    20:00 +27°C° 0 mm 4 mps 759 mmHg 36%
    21:00 +27°C° 0 mm 4 mps 759 mmHg 36%
    22:00 +26°C° 0 mm 4 mps 759 mmHg 37%
    23:00 +25°C° 0 mm 4 mps 759 mmHg 37%
    Mostrar más